• MPC Preparation (Info)

  • MPEC 2024-H14 : 2024 GP6

    The following Minor Planet Electronic Circular may be linked-to from your own Web pages, but must not otherwise be redistributed electronically.

    A form allowing access to any MPEC is at the bottom of this page.


    Read MPEC 2024-H13 Read MPEC 2024-H15


    M.P.E.C. 2024-H14                                Issued 2024 April 17, 11:42 UT
    
         The Minor Planet Electronic Circulars contain information on unusual
             minor planets, routine data on comets and natural satellites,
             and occasional editorial announcements.  They are published
        on behalf of Division F of the International Astronomical Union by the
              Minor Planet Center, Smithsonian Astrophysical Observatory,
                              Cambridge, MA 02138, U.S.A.
    			  
                 Prepared using the Tamkin Foundation Computer Network
    
                                  MPC@CFA.HARVARD.EDU
                URL https://www.minorplanetcenter.net/    ISSN 1523-6714
    
                                    2024 GP6                                 
    
    
    Observations:
         K24G06P*1C2024 04 14.23683311 09 16.996+45 17 59.78         21.03GVEH014G96
         K24G06P 1C2024 04 14.24209311 09 16.528+45 17 27.96         20.67GVEH014G96
         K24G06P 1C2024 04 14.24737211 09 16.124+45 16 56.75         21.35GVEH014G96
         K24G06P 1C2024 04 14.25263811 09 15.602+45 16 25.82         21.05GVEH014G96
         K24G06P  C2024 04 14.29133611 09 12.130+45 12 31.13         21.0 GVEH014H01
         K24G06P  C2024 04 14.29604911 09 11.716+45 12 02.53         20.6 GVEH014H01
         K24G06P  C2024 04 14.30561711 09 10.933+45 11 04.83         21.0 GVEH014H01
         K24G06P  C2024 04 14.31617811 09 10.072+45 10 00.61         20.8 GVEH014H01
         K24G06P KC2024 04 14.36386811 09 06.383+45 05 13.38         20.99GVEH014I52
         K24G06P KC2024 04 14.36573811 09 06.232+45 05 01.82         21.42GVEH014I52
         K24G06P KC2024 04 14.36760911 09 06.142+45 04 50.74         21.39GVEH014I52
         K24G06P KC2024 04 14.36948711 09 05.958+45 04 38.60         21.05GVEH014I52
         K24G06P KB2024 04 14.85906 11 08 38.41 +44 15 39.7          20.4 RZEH014106
         K24G06P KB2024 04 14.86654 11 08 37.82 +44 14 54.3          20.5 RZEH014106
         K24G06P KB2024 04 14.87374 11 08 37.21 +44 14 10.6          20.8 RZEH014106
         K24G06P KB2024 04 14.88075 11 08 36.67 +44 13 28.6          20.6 RZEH014106
         K24G06P KC2024 04 15.16585911 08 19.47 +43 44 36.2          21.0 GVEH014H21
         K24G06P KC2024 04 15.17261211 08 18.90 +43 43 55.0          21.0 GVEH014H21
         K24G06P KC2024 04 15.17788411 08 18.53 +43 43 22.4          20.7 GVEH014H21
         K24G06P KC2024 04 15.42021311 08 01.590+43 18 18.65         20.93GVEH014I52
         K24G06P KC2024 04 15.42848311 08 01.028+43 17 25.73         20.67GVEH014I52
         K24G06P KC2024 04 15.43673811 08 00.560+43 16 34.00         21.43GVEH014I52
         K24G06P KC2024 04 15.44498711 08 00.121+43 15 41.36         21.81GVEH014I52
         K24G06P pC2024 04 15.85270111 07 40.91 +42 33 41.7          20.8 GVEH014L01
         K24G06P KC2024 04 15.85567111 07 40.62 +42 33 23.9          20.7 GVEH014L01
         K24G06P IC2024 04 15.85867211 07 40.49 +42 33 04.0          20.6 GVEH014L01
         K24G06P KC2024 04 15.86167111 07 40.21 +42 32 46.0          20.6 GVEH014L01
         K24G06P KC2024 04 15.86463511 07 39.96 +42 32 27.3          20.5 GVEH014L01
         K24G06P 1C2024 04 15.93246 11 07 35.38 +42 25 15.9          21.0 VXEH014033
         K24G06P 1C2024 04 15.93559 11 07 35.16 +42 24 55.9          20.9 VXEH014033
         K24G06P 1C2024 04 16.09778 11 07 24.89 +42 07 40.6          20.4 VXEH014033
         K24G06P 1C2024 04 16.09934 11 07 24.81 +42 07 30.7          20.4 VXEH014033
         K24G06P 1C2024 04 16.10091 11 07 24.62 +42 07 19.7          20.7 VXEH014033
         K24G06P 1C2024 04 16.10247 11 07 24.60 +42 07 10.3          20.8 VXEH014033
         K24G06P KC2024 04 17.13002911 06 36.85 +40 18 01.2          20.5 GXEH014858
         K24G06P KC2024 04 17.13659611 06 36.48 +40 17 19.0          21.2 GXEH014858
         K24G06P KC2024 04 17.14375311 06 36.02 +40 16 32.6          21.0 GXEH014858
    
    Observer details:
    033 Karl Schwarzschild Observatory, Tautenburg.  Observers S. Melnikov, C.
        Hogner, F. Ludwig, M. Hartmann, B. Stecklum.  Measurer B. Stecklum.
        1.34-m f/3 Schmidt + CCD.
    106 Crni Vrh.  Observer H. Mikuz.  0.60-m f/3.3 reflector + CMO.
    858 Tebbutt Observatory, Edgewood.  Observer F. B. Zoltowski.  0.51-m f/8.1
        Schmidt-Cassegrain + CCD.
    G96 Mt. Lemmon Survey.  Observer K. W. Wierzchos.  Measurers T. Beuden, V. F.
        Carvajal, D. Fay, J. B. Fazekas, D. C. Fuls, A. R. Gibbs, A. D. Grauer, H.
        Groeller, J. K. Hogan, R. A. Kowalski, S. M. Larson, G. J. Leonard, D.
        Rankin, R. L. Seaman, F. C. Shelly, K. W. Wierzchos.  1.5-m reflector +
        10K CCD.
    H01 Magdalena Ridge Observatory, Socorro.  Observers W. H. Ryan, E. V. Ryan.
        Measurer W. H. Ryan.  2.4-m f/8.9 Ritchey-Chretien + CCD.
    H21 Astronomical Research Observatory, Westfield.  Observer R. Holmes.
        Measurers T. Linder, R. Holmes, L. Horn.  0.76-m f/3.0 astrograph + CCD.
    I52 Steward Observatory, Mt. Lemmon Station.  Observers D. Rankin, J. B.
        Fazekas, T. Beuden.  Measurers T. Beuden, V. F. Carvajal, D. Fay, J. B.
        Fazekas, D. C. Fuls, A. R. Gibbs, A. D. Grauer, H. Groeller, J. K. Hogan,
        R. A. Kowalski, S. M. Larson, G. J. Leonard, D. Rankin, R. L. Seaman, F.
        C. Shelly, K. W. Wierzchos.  1.0-m prime focus + CCD.
    L01 Visnjan Observatory, Tican.  Observer K. Korlevic.  1.0-m f/2.9 reflector
        + CCD.
    
    Orbital elements:
    2024 GP6                                                 Earth MOID = 0.1078 AU
    Epoch 2024 Mar. 31.0 TT = JDT 2460400.5                 Veres                   
    M 352.41070              (2000.0)            P               Q                  
    n   0.53071130     Peri.  161.22832     -0.94738005     +0.26059519             
    a   1.5108818      Node    35.59727     -0.31902907     -0.72092627             
    e   0.2699707      Incl.   18.62547     -0.02629646     -0.64214909             
    P   1.86           H   22.57          G   0.15           U   8                  
    Residuals in seconds of arc
    240414 G96  0.1-  0.1-    240414 106  0.2+  0.2+    240415 L01  0.3-  0.1+
    240414 G96  0.1-  0.5-    240414 106  0.2-  0.2+    240415 L01  0.7-  0.0
    240414 G96  0.5+  0.2-    240414 106  0.0   0.8+    240415 033  0.6+  0.1-
    240414 G96  0.2-  0.3+    240415 H21  0.1+  0.2-    240415 033  0.6+  0.3-
    240414 H01  0.1+  0.0     240415 H21  0.2-  0.1+    240416 033  0.1-  0.0
    240414 H01  0.1-  0.1-    240415 H21  0.3+  0.0     240416 033  0.1-  0.1+
    240414 H01  0.0   0.0     240415 I52  0.0   0.2+    240416 033  1.2-  0.8-
    240414 H01  0.0   0.3-    240415 I52  0.5-  0.3-    240416 033  0.5-  0.2-
    240414 I52  0.0   0.2+    240415 I52  0.2-  0.3+    240417 858  0.8-  0.0
    240414 I52  0.1-  0.0     240415 I52  0.4+  0.0     240417 858  0.1+  0.2+
    240414 I52  0.4+  0.4+    240415 L01  0.1+  0.3-    240417 858  0.3+  0.0
    240414 I52  0.0   0.3-    240415 L01  0.7-  0.5+
    240414 106  0.1+  0.3+    240415 L01  0.3+  0.7-
    
    Ephemeris:
    2024 GP6                 a,e,i = 1.51, 0.27, 19                  q = 1.1030
    Date    TT    R. A. (2000) Decl.     Delta      r    Elong.  Phase     V
    2024 03 18    12 21 52.1 +70 42 18   0.2875  1.1269   110.1    56.0    22.2
    ...
    2024 04 02    11 31 29.3 +61 10 26   0.2304  1.1079   112.4    56.5    21.7
    ...
    2024 04 10    11 14 54.5 +51 45 35   0.2039  1.1036   115.0    55.4    21.3
    ...
    2024 04 16    11 07 32.8 +42 18 26   0.1885  1.1031   117.4    53.9    21.1
    2024 04 17    11 06 41.9 +40 32 07   0.1864  1.1032   117.8    53.6    21.1
    2024 04 18    11 05 57.0 +38 42 41   0.1846  1.1034   118.2    53.3    21.1
    ...
    2024 04 24    11 03 21.3 +26 51 25   0.1776  1.1061   120.3    51.7    20.9
    ...
    2024 05 02    11 04 11.4 +10 00 21   0.1812  1.1132   121.5    50.6    21.0
    ...
    2024 05 17    11 16 21.2 -16 29 51   0.2261  1.1369   118.6    51.4    21.5
    
    M. P. C. Staff               (C) Copyright 2024 MPC           M.P.E.C. 2024-H14
    


    Read MPEC 2024-H13 Read MPEC 2024-H15


    MPEC number:

    Enter an MPEC number in one of the following forms:

    • 1997-B01 (the full form)
    • J97B01 (the packed version of the full form)
    • B01 (the abbreviated form)